Regional Weather Roundup
Issued by NWS San Angelo, TX

Home | Current Version | Previous Version | Text Only | Print | Product List | Glossary On
Versions: 1 2 3 4 5 6 7 8 9 10 11 12 13 14 15 16 17 18 19 20 21 22 23 24 25 26 27 28 29 30 31 32 33 34 35 36 37 38 39 40 41 42 43 44 45 46 47 48 49 50
000
ASUS44 KSJT 162210
RWRSJT
WEST CENTRAL TEXAS REGIONAL WEATHER ROUNDUP
NATIONAL WEATHER SERVICE SAN ANGELO TX
400 PM CST TUE JAN 16 2018

NOTE: "FAIR" INDICATES FEW OR NO CLOUDS BELOW 12,000 FEET WITH NO
SIGNIFICANT WEATHER AND/OR OBSTRUCTIONS TO VISIBILITY.

TXZ049-054-064>066-071>073-076>078-098-099-113-114-127-128-139-140-
154-155-168>170-162300
...LOCATIONS ACROSS WEST CENTRAL TEXAS...

CITY           SKY/WX    TMP DP  RH WIND       PRES   REMARKS
SAN ANGELO     CLOUDY    26  -6  24 N8        30.66F WCI  18
ABILENE        SUNNY     26  -5  25 N17       30.66F WCI  13
DYESS AFB      SUNNY     27  -7  22 N12       30.66F WCI  17
JUNCTION       CLOUDY    27  -3  27 N12       30.64F WCI  17
SWEETWATER     SUNNY     29  -7  21 N10G16    30.65S WCI  19
BROWNWOOD      CLOUDY    27  -2  28 N9G16     30.68F WCI  17
COLEMAN        PTCLDY    29  -4  24 N8        30.66F WCI  21
SONORA         CLOUDY    27  -4  26 N14       30.67S WCI  15
OZONA          CLOUDY    28  -4  24 N13       30.65F WCI  18
BRADY          NOT AVBL
$$

TEXAS PANHANDLE/OKLAHOMA PANHANDLE

CITY           SKY/WX    TMP DP  RH WIND       PRES   REMARKS
AMARILLO       SUNNY     27   0  31 NW6       30.54F WCI  20
BORGER         SUNNY     28  -3  26 VRB5      30.58F WCI  23
CANADIAN       SUNNY     26 -16  15 N8        30.63F WCI  17
DALHART        SUNNY     29   6  38 SW6       30.50F WCI  23
DUMAS          CLEAR     26   2  34 CALM      30.53S
GUYMON         NOT AVBL
HEREFORD       CLEAR     32   7  35 MISG      30.52F
PAMPA          CLEAR     26  -7  22 N7        30.57F WCI  19
PERRYTON       SUNNY     26  -6  25 N5        30.58F WCI  20
$$

SOUTHERN PANHANDLE/SOUTH PLAINS/ROLLING PLAINS

CITY           SKY/WX    TMP DP  RH WIND       PRES   REMARKS
LUBBOCK        MOSUNNY   32   1  26 N3        30.55F
SNYDER         SUNNY     30  -5  22 N7G16     30.62F WCI  23
CHILDRESS      SUNNY     28 -15  14 N5        30.66F WCI  23
SEMINOLE       CLOUDY    32   1  26 N5        30.57F WCI  27
$$

PERMIAN BASIN

CITY           SKY/WX    TMP DP  RH WIND       PRES   REMARKS
MIDLAND        CLOUDY    28  -1  28 CALM      30.59F
ODESSA         CLOUDY    28  -2  27 NE3       30.59F
WINK           CLOUDY    30  -2  25 CALM      30.60F
$$

FAR WEST/SOUTHWEST MOUNTAINS/TRANS PECOS

CITY           SKY/WX    TMP DP  RH WIND       PRES   REMARKS
ALPINE         CLOUDY    26  -6  25 NE8G16    30.56F WCI  17
DRYDEN           N/A     40  -4  15 N8        30.61F WCI  34
EL PASO        PTSUNNY   36   9  32 E12       30.44F WCI  28
FORT STOCKTON  CLOUDY    28  -2  27 E8        30.60F WCI  20
GUADALUPE PASS CLOUDY    22   1  40 E25       30.41F WCI   5
MARFA          CLOUDY    25  -4  28 MISG      30.47F
PECOS          CLOUDY    31  -2  23 SE7       30.61F WCI  25
$$

DALLAS/FORT WORTH METROPLEX

CITY           SKY/WX    TMP DP  RH WIND       PRES   REMARKS
DFW AIRPORT    MOSUNNY   30   0  27 N18       30.68F WCI  18
FTW MEACHAM    SUNNY     30   1  29 NW15G26   30.69F WCI  19
DAL-EXECUTIVE  SUNNY     28   2  32 N16G23    30.68F WCI  16
GRAND PRAIRIE  SUNNY     28   0  29 NW12G22   30.71F WCI  18
ADDISON        SUNNY     27   3  36 NW16G23   30.70F WCI  14
MESQUITE       CLEAR     28   1  31 NW14G20   30.71F WCI  17
LANCASTER      CLOUDY    27   4  37 NW15      30.71F WCI  15
$$

NORTH CENTRAL TEXAS

CITY           SKY/WX    TMP DP  RH WIND       PRES   REMARKS
SHRMAN/DENISON CLEAR     26   1  33 N15G23    30.72S WCI  14
GAINESVILLE    SUNNY     26  -3  28 N13G20    30.72S WCI  15
BRIDGEPORT     CLEAR     29   1  30 N14       30.72F WCI  18
DENTON         SUNNY     29   1  30 N16G24    30.70F WCI  17
WAXAHACHIE     CLOUDY    26   6  44 N10       30.70F WCI  15
GRANBURY       CLEAR     31   1  28 N10G18    30.71F WCI  22
$$

WESTERN NORTH TEXAS

CITY           SKY/WX    TMP DP  RH WIND       PRES   REMARKS
WICHITA FALLS  MOSUNNY   28  -3  26 N16       30.71F WCI  16
VERNON         CLEAR     30 -15  13 N15       30.71F WCI  19
BRECKENRIDGE   NOT AVBL
COMANCHE       PTSUNNY   26   0  32 N12G17    30.68S WCI  15
$$

CENTRAL AND SOUTH CENTRAL TEXAS

CITY           SKY/WX    TMP DP  RH WIND       PRES   REMARKS
AUSTIN/BERGSTM CLOUDY    28  13  53 N13G22    30.68R WCI  17
WACO           CLOUDY    25   4  40 N15       30.72F WCI  13
HILLSBORO      CLOUDY    25   6  44 N14       30.69F WCI  14
TEMPLE         CLOUDY    24   4  42 N18       30.70R WCI  10
KILLEEN-GRAY   CLOUDY    23  -1  36 N17       30.66R WCI   9
FORT HOOD      CLOUDY    23   1  38 N17       30.65R WCI   9
GEORGETOWN     CLOUDY    28   6  39 N12       30.69S WCI  18
LAGO VISTA     CLOUDY    28   2  33 MISG      30.65S
SAN MARCOS     CLOUDY    28  15  58 N18G24    30.67S WCI  15
NEW BRAUNFELS  CLOUDY    28  14  55 N15       30.65S WCI  16
RANDOLPH AFB   CLOUDY    29   7  39 N16G22    30.64S WCI  17
SAN ANTONIO    CLOUDY    29  11  47 N13G21    30.65S WCI  19
STINSON        CLOUDY    32  13  45 N10       30.65S WCI  24
PLEASANTON     NOT AVBL
LA GRANGE      CLOUDY    28  17  63 N13G21    30.65S WCI  18
GIDDINGS       CLOUDY    26  16  65 N9G18     30.67S WCI  17
$$

EAST TEXAS

CITY           SKY/WX    TMP DP  RH WIND       PRES   REMARKS
PARIS          SUNNY     23   3  42 N12       30.70S WCI  12
CLARKSVILLE    NOT AVBL
TYLER          CLOUDY    23   7  50 N14       30.68R WCI  11
LONGVIEW       PTSUNNY   24  11  57 NW13      30.67R WCI  12
PALESTINE      CLOUDY    24  14  67 NW10G21   30.71S WCI  13
NACOGDOCHES    NOT AVBL
$$

TEXAS HILL COUNTRY AND EDWARDS PLATEAU

CITY           SKY/WX    TMP DP  RH WIND       PRES   REMARKS
LLANO          CLOUDY    30   1  29 N10       30.72S WCI  21
HORSESHOE BAY  CLOUDY    29   4  33 N10       30.67S WCI  20
KERRVILLE      CLOUDY    26   5  39 N15       30.62S WCI  14
FREDERICKSBRG  CLOUDY    28  -4  24 N17       30.62F WCI  15
ROCKSPRINGS      N/A     27  -4  26 N8G16     30.62F WCI  18
HONDO          CLOUDY    33  18  53 N13       30.65S WCI  24
UVALDE         CLOUDY    32   9  37 N9        30.66F WCI  25
DEL RIO        CLOUDY    35  -1  21 N10       30.67F WCI  27
$$

SOUTHEAST TEXAS

CITY           SKY/WX    TMP DP  RH WIND       PRES   REMARKS
COLLEGE STN    CLOUDY    25  13  60 N18       30.67S WCI  11
CALDWELL       CLOUDY    24  12  59 N16G24    30.68S WCI  11
CROCKETT         N/A     25  14  63 CALM      30.70F
BRENHAM        CLOUDY    27  17  66 N17       30.67S WCI  15
HUNTSVILLE     CLOUDY    23  15  71 N12G20    30.65S WCI  12
CONROE         CLOUDY    25  18  74 N9G17     30.64R WCI  15
HOUSTON BUSH   CLOUDY    26  21  81 N18G24    30.64R WCI  13
HOUSTON HOBBY  LGTSLEET  27  23  85 N18       30.62R WCI  14
PERLAND        MIX PCPN  27  23  85 N17G25    30.64R WCI  14
WHARTON        CLOUDY    26  21  82 CALM      30.65R
$$

THE UPPER TEXAS COAST

CITY           SKY/WX    TMP DP  RH WIND       PRES   REMARKS
ORANGE         MIX PCPN  29  27  92 N8G16     30.60R WCI  21
PORT ARTHUR    MIX PCPN  28  24  85 N20G25    30.58R WCI  15
GALVESTON      CLOUDY    31  27  85 N23G33    30.59R FOG     WCI  18
ANGLETON         N/A    N/A N/A N/A MISG      30.61R
BAY CITY       NOT AVBL
$$

TEXAS COASTAL BEND, RIO GRANDE PLAINS DEEP SOUTH TEXAS

CITY           SKY/WX    TMP DP  RH WIND       PRES   REMARKS
VICTORIA       CLOUDY    27  20  75 N20G31    30.65R WCI  13
BEEVILLE       CLOUDY    28  22  80 N15G23    30.65R WCI  16
ROCKPORT       CLOUDY    29  23  78 N21G31    30.63R WCI  16
PORT ARANSAS   NOT AVBL
PORT LAVACA    CLOUDY    28  23  83 N22       30.64R WCI  13
CORPUS CHRISTI CLOUDY    30  22  72 N23       30.62S WCI  17
KINGSVILLE NAS CLOUDY    31  22  69 N18G29    30.64R WCI  19
COTULLA        CLOUDY    34  17  50 N13       30.68R WCI  25
LAREDO         CLOUDY    32  26  78 N12       30.68R WCI  23
BROWNSVILLE    MIX PCPN  34  30  86 N22G35    30.56R WCI  22
PORT ISABEL    NOT AVBL
HEBBRONVILLE   CLOUDY    28  26  92 N13       30.63S WCI  18
MCALLEN        NOT AVBL
WESLACO        LGT SNOW  31  29  92 N22G30    30.61R WCI  19
FALFURRIAS     CLOUDY    32  26  78 N14G24    30.64R WCI  22
EDINBURG       CLOUDY    33  31  92 N16G23    30.63R FOG     WCI  22
$$




USA.gov is the U.S. government's official web portal to all federal, state and local government web resources and services.